Carmopolis, Brazil
Current Conditions -  °F | °C
As of 12:00 PM on Thursday 23 Oct 2014 (Local Time) from SBAR Reporting Station
Scattered Clouds Scattered Clouds  
Wind Chill: 82°   Ceiling: Unl
Heat Index: 84°   Visibility: 6mi
Dew Point: 64°   Wind: 13mph
Humidity: 54%   Direction: 160°SSE
Pressure: 30"   Gusts: NA
Location:  10.65°S, 36.99°W
Report Text: SBAR 231500Z 16011KT 9999 SCT017 28/18 Q1016
Loading
Personal Weather Stations






























Interactive Weather Map
Tropical Storm Tracking
New forecast layout! Learn more

10-Day Weather Forecast

Advertisements
Track Severe Weather on mobile